When you browse on this site, cookies collect data to enhance your experience and personalize the content and advertising you see.
Visit our Privacy Policy to learn more. By continuing to use the site, you agree to this use of cookies and data.
  • In Österreich
  • Länderverzeichnis
  • Für 7 Tage
  • Wassertemperatur
  • Satellitenkarten
  • Wetterkarte
  • News
  • Widgets
  • user-avatar
    Anmelden

    Stündliche Wetter Oaxaca

    Heute, 11 Dezember, Dienstag

    Zeit Temperatur Niederschläge Wind Luftdruck Luftfeuchtigkeit
    00:00 +12°C° 0 mm 2 m/S 636 mmHg 90%
    01:00 +12°C° 0 mm 2 m/S 636 mmHg 91%
    02:00 +12°C° 0 mm 2 m/S 636 mmHg 91%
    03:00 +12°C° 0 mm 2 m/S 635 mmHg 92%
    04:00 +12°C° 0 mm 2 m/S 635 mmHg 92%
    05:00 +12°C° 0 mm 2 m/S 635 mmHg 92%
    06:00 +12°C° 0 mm 2 m/S 635 mmHg 92%
    07:00 +13°C° 0 mm 2 m/S 636 mmHg 88%
    08:00 +14°C° 0 mm 2 m/S 637 mmHg 83%
    09:00 +15°C° 0 mm 2 m/S 637 mmHg 79%
    10:00 +16°C° 0 mm 2 m/S 638 mmHg 74%
    11:00 +17°C° 0 mm 3 m/S 638 mmHg 69%
    12:00 +18°C° 0 mm 3 m/S 638 mmHg 65%
    13:00 +19°C° 0 mm 3 m/S 637 mmHg 64%
    14:00 +19°C° 0 mm 3 m/S 637 mmHg 63%
    15:00 +19°C° 0 mm 3 m/S 636 mmHg 62%
    16:00 +18°C° 0 mm 2 m/S 636 mmHg 68%
    17:00 +17°C° 0 mm 2 m/S 635 mmHg 74%
    18:00 +15°C° 0 mm 2 m/S 635 mmHg 80%
    19:00 +14°C° 0 mm 2 m/S 635 mmHg 83%
    20:00 +14°C° 0 mm 2 m/S 635 mmHg 87%
    21:00 +13°C° 0 mm 1 m/S 636 mmHg 90%
    22:00 +12°C° 0 mm 1 m/S 635 mmHg 91%
    23:00 +12°C° 0 mm 1 m/S 635 mmHg 91%

    Morgen, 12 Dezember, Mittwoch

    Zeit Temperatur Niederschläge Wind Luftdruck Luftfeuchtigkeit
    00:00 +12°C° 0 mm 1 m/S 635 mmHg 92%
    01:00 +12°C° 0 mm 1 m/S 634 mmHg 92%
    02:00 +11°C° 0 mm 1 m/S 634 mmHg 92%
    03:00 +11°C° 0 mm 1 m/S 633 mmHg 92%
    04:00 +11°C° 0 mm 1 m/S 633 mmHg 91%
    05:00 +11°C° 0 mm 1 m/S 633 mmHg 90%
    06:00 +11°C° 0 mm 1 m/S 633 mmHg 89%
    07:00 +13°C° 0 mm 1 m/S 634 mmHg 79%
    08:00 +15°C° 0 mm 1 m/S 635 mmHg 69%
    09:00 +19°C° 0 mm 1 m/S 636 mmHg 60%
    10:00 +21°C° 0 mm 1 m/S 636 mmHg 53%
    11:00 +23°C° 0 mm 1 m/S 637 mmHg 46%
    12:00 +25°C° 0 mm 1 m/S 637 mmHg 39%
    13:00 +26°C° 0 mm 1 m/S 636 mmHg 39%
    14:00 +26°C° 0 mm 2 m/S 636 mmHg 38%
    15:00 +26°C° 0 mm 2 m/S 635 mmHg 38%
    16:00 +24°C° 0 mm 2 m/S 634 mmHg 48%
    17:00 +22°C° 0 mm 1 m/S 634 mmHg 58%
    18:00 +19°C° 0 mm 1 m/S 633 mmHg 68%
    19:00 +19°C° 0 mm 1 m/S 633 mmHg 73%
    20:00 +18°C° 0 mm 1 m/S 633 mmHg 78%
    21:00 +16°C° 0 mm 1 m/S 634 mmHg 83%
    22:00 +16°C° 0 mm 1 m/S 633 mmHg 84%
    23:00 +15°C° 0 mm 1 m/S 633 mmHg 86%

    übermorgen, 13 Dezember, Donnerstag

    Zeit Temperatur Niederschläge Wind Luftdruck Luftfeuchtigkeit
    00:00 +15°C° 0 mm 1 m/S 633 mmHg 87%
    01:00 +15°C° 0 mm 2 m/S 633 mmHg 88%
    02:00 +15°C° 0 mm 2 m/S 633 mmHg 89%
    03:00 +14°C° 0 mm 2 m/S 632 mmHg 90%
    04:00 +14°C° 0 mm 2 m/S 632 mmHg 90%
    05:00 +14°C° 0 mm 2 m/S 632 mmHg 90%
    06:00 +14°C° 0 mm 2 m/S 632 mmHg 89%
    07:00 +16°C° 0 mm 1 m/S 633 mmHg 80%
    08:00 +19°C° 0 mm 1 m/S 634 mmHg 71%
    09:00 +21°C° 0 mm 1 m/S 635 mmHg 62%
    10:00 +23°C° 0 mm 2 m/S 635 mmHg 53%
    11:00 +24°C° 0 mm 2 m/S 635 mmHg 45%
    12:00 +26°C° 0 mm 2 m/S 636 mmHg 36%
    13:00 +26°C° 0 mm 2 m/S 635 mmHg 36%
    14:00 +27°C° 0 mm 2 m/S 635 mmHg 36%
    15:00 +27°C° 0 mm 2 m/S 634 mmHg 36%
    16:00 +25°C° 0.1 mm 2 m/S 633 mmHg 45%
    17:00 +22°C° 0.1 mm 1 m/S 633 mmHg 53%
    18:00 +20°C° 0.1 mm 1 m/S 632 mmHg 62%
    19:00 +19°C° 0 mm 1 m/S 632 mmHg 65%
    20:00 +18°C° 0 mm 1 m/S 633 mmHg 69%
    21:00 +16°C° 0 mm 1 m/S 633 mmHg 72%
    22:00 +16°C° 0 mm 1 m/S 633 mmHg 75%
    23:00 +16°C° 0 mm 1 m/S 633 mmHg 78%

    14 Dezember, Freitag

    Zeit Temperatur Niederschläge Wind Luftdruck Luftfeuchtigkeit
    00:00 +16°C° 0 mm 1 m/S 633 mmHg 80%
    01:00 +15°C° 0 mm 1 m/S 633 mmHg 83%
    02:00 +15°C° 0 mm 2 m/S 633 mmHg 86%
    03:00 +14°C° 0 mm 2 m/S 633 mmHg 88%
    04:00 +14°C° 0 mm 2 m/S 633 mmHg 89%
    05:00 +14°C° 0 mm 2 m/S 633 mmHg 90%
    06:00 +14°C° 0 mm 2 m/S 633 mmHg 91%
    07:00 +15°C° 0 mm 2 m/S 634 mmHg 87%
    08:00 +16°C° 0 mm 2 m/S 635 mmHg 83%
    09:00 +17°C° 0 mm 2 m/S 636 mmHg 79%
    10:00 +17°C° 0 mm 2 m/S 636 mmHg 75%
    11:00 +18°C° 0 mm 2 m/S 636 mmHg 71%
    12:00 +19°C° 0 mm 2 m/S 636 mmHg 68%
    13:00 +19°C° 0 mm 2 m/S 636 mmHg 67%
    14:00 +19°C° 0 mm 2 m/S 635 mmHg 67%
    15:00 +19°C° 0 mm 2 m/S 634 mmHg 67%
    16:00 +18°C° 0 mm 2 m/S 634 mmHg 71%
    17:00 +17°C° 0 mm 2 m/S 634 mmHg 75%
    18:00 +16°C° 0 mm 2 m/S 634 mmHg 79%
    19:00 +15°C° 0 mm 2 m/S 634 mmHg 82%
    20:00 +14°C° 0 mm 2 m/S 635 mmHg 85%
    21:00 +13°C° 0 mm 2 m/S 635 mmHg 88%
    22:00 +13°C° 0 mm 2 m/S 635 mmHg 89%
    23:00 +12°C° 0 mm 2 m/S 635 mmHg 89%

    15 Dezember, Samstag

    Zeit Temperatur Niederschläge Wind Luftdruck Luftfeuchtigkeit
    00:00 +12°C° 0 mm 2 m/S 634 mmHg 90%
    01:00 +12°C° 0 mm 2 m/S 634 mmHg 90%
    02:00 +10°C° 0 mm 2 m/S 634 mmHg 91%
    03:00 +10°C° 0 mm 2 m/S 633 mmHg 91%
    04:00 +10°C° 0 mm 2 m/S 634 mmHg 91%
    05:00 +10°C° 0 mm 2 m/S 634 mmHg 91%
    06:00 +10°C° 0 mm 2 m/S 634 mmHg 90%
    07:00 +12°C° 0 mm 2 m/S 635 mmHg 85%
    08:00 +13°C° 0 mm 2 m/S 636 mmHg 80%
    09:00 +14°C° 0 mm 2 m/S 637 mmHg 75%
    10:00 +16°C° 0 mm 2 m/S 637 mmHg 68%
    11:00 +18°C° 0 mm 2 m/S 637 mmHg 61%
    12:00 +20°C° 0 mm 2 m/S 637 mmHg 54%
    13:00 +20°C° 0 mm 2 m/S 637 mmHg 52%
    14:00 +21°C° 0 mm 2 m/S 636 mmHg 51%
    15:00 +23°C° 0 mm 2 m/S 636 mmHg 49%
    16:00 +20°C° 0 mm 2 m/S 635 mmHg 57%
    17:00 +18°C° 0 mm 2 m/S 635 mmHg 66%
    18:00 +16°C° 0 mm 2 m/S 635 mmHg 74%
    19:00 +15°C° 0 mm 2 m/S 635 mmHg 78%
    20:00 +14°C° 0 mm 2 m/S 635 mmHg 83%
    21:00 +13°C° 0 mm 2 m/S 635 mmHg 87%
    22:00 +13°C° 0 mm 2 m/S 635 mmHg 88%
    23:00 +12°C° 0 mm 1 m/S 635 mmHg 89%

    16 Dezember, Sonntag

    Zeit Temperatur Niederschläge Wind Luftdruck Luftfeuchtigkeit
    00:00 +12°C° 0 mm 1 m/S 635 mmHg 90%
    01:00 +12°C° 0 mm 1 m/S 634 mmHg 90%
    02:00 +11°C° 0 mm 1 m/S 634 mmHg 90%
    03:00 +11°C° 0 mm 1 m/S 633 mmHg 90%
    04:00 +11°C° 0 mm 1 m/S 634 mmHg 89%
    05:00 +11°C° 0 mm 1 m/S 634 mmHg 88%
    06:00 +10°C° 0 mm 1 m/S 634 mmHg 88%
    07:00 +12°C° 0 mm 1 m/S 635 mmHg 79%
    08:00 +14°C° 0 mm 1 m/S 636 mmHg 71%
    09:00 +16°C° 0 mm 2 m/S 637 mmHg 63%
    10:00 +19°C° 0 mm 1 m/S 637 mmHg 56%
    11:00 +22°C° 0 mm 1 m/S 638 mmHg 50%
    12:00 +24°C° 0 mm 1 m/S 638 mmHg 43%
    13:00 +24°C° 0 mm 1 m/S 637 mmHg 43%
    14:00 +24°C° 0 mm 1 m/S 637 mmHg 43%
    15:00 +25°C° 0 mm 2 m/S 636 mmHg 44%
    16:00 +21°C° 0 mm 2 m/S 636 mmHg 53%
    17:00 +19°C° 0 mm 2 m/S 635 mmHg 62%
    18:00 +17°C° 0 mm 2 m/S 635 mmHg 71%
    19:00 +16°C° 0 mm 2 m/S 635 mmHg 76%
    20:00 +15°C° 0 mm 2 m/S 635 mmHg 81%
    21:00 +14°C° 0 mm 2 m/S 635 mmHg 86%
    22:00 +13°C° 0 mm 2 m/S 635 mmHg 87%
    23:00 +13°C° 0 mm 2 m/S 635 mmHg 88%
    Mehr zeigen